GGN9201 CYZV-CYQB

Flight info

Callsign GGN9201
Flight time 0h 50m
Altitude 38000
Route YBC DCT MIVAX DCT SIMTO SIMTO4
Aircraft CRJ9/M-SDFGIRWY/S

Departure

Time 2026-04-22 13:39
Airport Sept-Îles Airport (CYZV)

Arrival

Time 2026-04-22 14:29
Airport Quebec Jean Lesage International Airport (CYQB)
Time Latitude Longitude Altitude Speed Heading
2026-04-22 13:17 50.21843 -66.26414 178 ft 0 kts 159°
2026-04-22 13:28 50.21845 -66.26416 178 ft 2 kts 159°
2026-04-22 13:28 50.21861 -66.26427 178 ft 3 kts 144°
2026-04-22 13:28 50.21875 -66.26448 178 ft 3 kts 114°
2026-04-22 13:29 50.21879 -66.26475 178 ft 3 kts 79°
2026-04-22 13:29 50.21877 -66.26490 178 ft 0 kts 69°
2026-04-22 13:34 50.21885 -66.26456 178 ft 5 kts 68°
2026-04-22 13:35 50.21906 -66.26408 178 ft 6 kts 34°
2026-04-22 13:35 50.21938 -66.26357 177 ft 7 kts 66°
2026-04-22 13:35 50.21957 -66.26284 177 ft 8 kts 69°
2026-04-22 13:35 50.21959 -66.26201 178 ft 8 kts 107°
2026-04-22 13:36 50.21941 -66.26101 178 ft 11 kts 94°
2026-04-22 13:36 50.21970 -66.25986 178 ft 12 kts 64°
2026-04-22 13:36 50.22008 -66.25847 178 ft 16 kts 68°
2026-04-22 13:36 50.22056 -66.25651 178 ft 22 kts 69°
2026-04-22 13:37 50.22114 -66.25420 178 ft 23 kts 68°
2026-04-22 13:37 50.22209 -66.25257 178 ft 22 kts 359°
2026-04-22 13:37 50.22258 -66.25259 178 ft 0 kts 358°
2026-04-22 13:37 50.22262 -66.25259 178 ft 1 kts 358°
2026-04-22 13:38 50.22269 -66.25260 178 ft 1 kts 357°
2026-04-22 13:38 50.22363 -66.25273 180 ft 10 kts 329°
2026-04-22 13:38 50.22362 -66.25388 179 ft 22 kts 249°
2026-04-22 13:39 50.22216 -66.25973 175 ft 94 kts 251°
2026-04-22 13:39 50.21902 -66.27216 175 ft 151 kts 248°
2026-04-22 13:39 50.21540 -66.28785 745 ft 157 kts 249°
2026-04-22 13:39 50.21174 -66.30437 1456 ft 164 kts 250°
2026-04-22 13:40 50.20802 -66.32138 2191 ft 169 kts 249°
2026-04-22 13:40 50.20148 -66.33643 2837 ft 172 kts 221°
2026-04-22 13:40 50.19311 -66.35041 3475 ft 182 kts 226°
2026-04-22 13:40 50.18440 -66.36567 4069 ft 193 kts 228°
2026-04-22 13:41 50.17528 -66.38168 4704 ft 201 kts 228°
2026-04-22 13:41 50.16590 -66.39825 5345 ft 208 kts 230°
2026-04-22 13:41 50.15641 -66.41574 5985 ft 214 kts 231°
2026-04-22 13:41 50.14669 -66.43378 6624 ft 219 kts 231°
2026-04-22 13:42 50.13674 -66.45216 7223 ft 224 kts 231°
2026-04-22 13:42 50.12669 -66.47079 7809 ft 228 kts 230°
2026-04-22 13:42 50.11628 -66.48991 8329 ft 238 kts 230°
2026-04-22 13:42 50.10510 -66.51028 8690 ft 260 kts 230°
2026-04-22 13:43 50.09294 -66.53223 9189 ft 272 kts 230°
2026-04-22 13:43 50.08046 -66.55481 9985 ft 275 kts 230°
2026-04-22 13:43 50.06802 -66.57729 10708 ft 277 kts 230°
2026-04-22 13:43 50.05532 -66.60018 11427 ft 281 kts 230°
2026-04-22 13:44 50.04242 -66.62339 12081 ft 286 kts 229°
2026-04-22 13:44 50.02945 -66.64677 12777 ft 289 kts 229°
2026-04-22 13:44 50.01620 -66.67069 13493 ft 292 kts 229°
2026-04-22 13:44 50.00735 -66.68670 13925 ft 296 kts 229°
2026-04-22 13:45 49.99330 -66.71208 13956 ft 322 kts 229°
2026-04-22 13:45 49.97294 -66.74888 14062 ft 351 kts 229°
2026-04-22 13:45 49.96215 -66.76834 14166 ft 363 kts 229°
2026-04-22 13:45 49.93966 -66.80888 14532 ft 378 kts 229°
2026-04-22 13:46 49.92796 -66.82995 14921 ft 380 kts 229°
2026-04-22 13:46 49.91083 -66.86073 15538 ft 382 kts 229°
2026-04-22 13:46 49.89337 -66.89225 16060 ft 385 kts 229°
2026-04-22 13:46 49.87584 -66.92365 16626 ft 386 kts 229°
2026-04-22 13:47 49.85813 -66.95533 17157 ft 390 kts 229°
2026-04-22 13:47 49.84047 -66.98691 17647 ft 393 kts 229°
2026-04-22 13:47 49.82259 -67.01902 18242 ft 394 kts 229°
2026-04-22 13:47 49.80436 -67.05151 18605 ft 399 kts 228°
2026-04-22 13:48 49.78648 -67.08336 19351 ft 392 kts 229°
2026-04-22 13:48 49.76823 -67.11581 19442 ft 404 kts 229°
2026-04-22 13:48 49.74977 -67.14866 19938 ft 404 kts 230°
2026-04-22 13:48 49.73112 -67.18161 20208 ft 410 kts 230°
2026-04-22 13:49 49.71244 -67.21504 20620 ft 411 kts 231°
2026-04-22 13:49 49.69379 -67.24809 20933 ft 415 kts 230°
2026-04-22 13:49 49.67477 -67.28174 21355 ft 416 kts 230°
2026-04-22 13:49 49.65564 -67.31556 21671 ft 419 kts 230°
2026-04-22 13:50 49.63634 -67.34956 22040 ft 421 kts 230°
2026-04-22 13:50 49.61704 -67.38373 22330 ft 424 kts 230°
2026-04-22 13:50 49.59751 -67.41806 22685 ft 426 kts 230°
2026-04-22 13:50 49.57778 -67.45266 22984 ft 429 kts 231°
2026-04-22 13:51 49.55833 -67.48680 23329 ft 430 kts 231°
2026-04-22 13:51 49.53859 -67.52158 23629 ft 432 kts 231°
2026-04-22 13:51 49.51864 -67.55642 23913 ft 434 kts 231°
2026-04-22 13:51 49.49864 -67.59145 24144 ft 436 kts 231°
2026-04-22 13:52 49.47851 -67.62656 24387 ft 438 kts 231°
2026-04-22 13:52 49.45828 -67.66178 24632 ft 440 kts 231°
2026-04-22 13:52 49.43799 -67.69715 24876 ft 441 kts 231°
2026-04-22 13:52 49.41783 -67.73222 25099 ft 443 kts 231°
2026-04-22 13:53 49.39732 -67.76787 25321 ft 445 kts 231°
2026-04-22 13:53 49.37686 -67.80335 25552 ft 446 kts 231°
2026-04-22 13:53 49.35633 -67.83899 25758 ft 448 kts 231°
2026-04-22 13:53 49.33557 -67.87484 25988 ft 449 kts 231°
2026-04-22 13:54 49.31463 -67.91102 26179 ft 451 kts 231°
2026-04-22 13:54 49.29384 -67.94687 26392 ft 452 kts 230°
2026-04-22 13:54 49.27283 -67.98314 26583 ft 454 kts 230°
2026-04-22 13:54 49.25196 -68.01905 26768 ft 455 kts 231°
2026-04-22 13:55 49.23104 -68.05498 26965 ft 457 kts 231°
2026-04-22 13:55 49.20981 -68.09130 27154 ft 458 kts 231°
2026-04-22 13:55 49.18839 -68.12807 27334 ft 459 kts 231°
2026-04-22 13:55 49.16727 -68.16416 27501 ft 461 kts 230°
2026-04-22 13:56 49.14590 -68.20059 27671 ft 462 kts 230°
2026-04-22 13:56 49.12347 -68.23593 27830 ft 465 kts 225°
2026-04-22 13:56 49.09809 -68.26783 27985 ft 468 kts 219°
2026-04-22 13:56 49.07190 -68.29739 28148 ft 470 kts 219°
2026-04-22 13:57 49.04559 -68.32692 28279 ft 471 kts 219°
2026-04-22 13:57 49.01959 -68.35708 28415 ft 472 kts 220°
2026-04-22 13:57 48.99384 -68.38779 28538 ft 473 kts 220°
2026-04-22 13:57 48.96773 -68.41868 28661 ft 474 kts 220°
2026-04-22 13:58 48.94164 -68.44950 28774 ft 474 kts 220°
2026-04-22 13:58 48.91573 -68.48013 28888 ft 475 kts 220°
2026-04-22 13:58 48.86333 -68.54190 29072 ft 477 kts 220°
2026-04-22 13:59 48.81066 -68.60376 29218 ft 479 kts 220°
2026-04-22 13:59 48.75806 -68.66545 29367 ft 480 kts 220°
2026-04-22 14:00 48.70507 -68.72734 29498 ft 481 kts 220°
2026-04-22 14:00 48.65219 -68.78904 29617 ft 482 kts 220°
2026-04-22 14:01 48.62577 -68.81978 30129 ft 473 kts 220°
2026-04-22 14:01 48.59997 -68.84972 30767 ft 462 kts 220°
2026-04-22 14:01 48.57475 -68.87900 31328 ft 453 kts 220°
2026-04-22 14:01 48.54993 -68.90775 31795 ft 447 kts 220°
2026-04-22 14:02 48.52520 -68.93633 32020 ft 447 kts 220°
2026-04-22 14:02 48.50039 -68.96501 32225 ft 447 kts 220°
2026-04-22 14:02 48.47567 -68.99357 32440 ft 447 kts 220°
2026-04-22 14:02 48.45121 -69.02177 32639 ft 447 kts 220°
2026-04-22 14:03 48.42653 -69.05024 32854 ft 447 kts 220°
2026-04-22 14:03 48.40176 -69.07873 33043 ft 448 kts 220°
2026-04-22 14:03 48.37692 -69.10721 33259 ft 447 kts 220°
2026-04-22 14:03 48.35202 -69.13576 33470 ft 447 kts 220°
2026-04-22 14:04 48.32759 -69.16383 33682 ft 448 kts 220°
2026-04-22 14:04 48.30273 -69.19226 33876 ft 448 kts 219°
2026-04-22 14:04 48.27790 -69.22057 34065 ft 448 kts 220°
2026-04-22 14:04 48.25307 -69.24896 34246 ft 448 kts 220°
2026-04-22 14:05 48.22839 -69.27713 34424 ft 448 kts 220°
2026-04-22 14:05 48.20346 -69.30546 34603 ft 448 kts 220°
2026-04-22 14:05 48.15379 -69.36194 34947 ft 447 kts 220°
2026-04-22 14:06 48.12893 -69.39010 35120 ft 447 kts 220°
2026-04-22 14:06 48.10436 -69.41795 35290 ft 447 kts 219°
2026-04-22 14:06 48.07946 -69.44613 35423 ft 448 kts 220°
2026-04-22 14:06 48.05455 -69.47426 35601 ft 447 kts 220°
2026-04-22 14:07 48.02964 -69.50236 35768 ft 447 kts 220°
2026-04-22 14:07 48.00469 -69.53052 35936 ft 447 kts 220°
2026-04-22 14:07 47.98009 -69.55823 36105 ft 447 kts 219°
2026-04-22 14:07 47.95504 -69.58637 36272 ft 447 kts 219°
2026-04-22 14:08 47.93018 -69.61427 36436 ft 447 kts 219°
2026-04-22 14:08 47.90550 -69.64200 36246 ft 455 kts 220°
2026-04-22 14:08 47.88038 -69.67013 35696 ft 447 kts 220°
2026-04-22 14:08 47.85564 -69.69783 35148 ft 440 kts 220°
2026-04-22 14:09 47.83151 -69.72479 34626 ft 434 kts 220°
2026-04-22 14:09 47.80710 -69.75210 34092 ft 443 kts 220°
2026-04-22 14:09 47.78192 -69.78021 33468 ft 459 kts 220°
2026-04-22 14:09 47.75624 -69.80874 32861 ft 473 kts 220°
2026-04-22 14:10 47.72939 -69.83858 32248 ft 481 kts 221°
2026-04-22 14:10 47.70300 -69.86790 31618 ft 474 kts 222°
2026-04-22 14:10 47.67660 -69.89721 31020 ft 469 kts 222°
2026-04-22 14:10 47.65055 -69.92606 30433 ft 465 kts 222°
2026-04-22 14:11 47.62472 -69.95469 29765 ft 461 kts 222°
2026-04-22 14:11 47.59938 -69.98267 29083 ft 458 kts 223°
2026-04-22 14:11 47.57396 -70.01072 28410 ft 455 kts 223°
2026-04-22 14:11 47.54914 -70.03813 27769 ft 453 kts 223°
2026-04-22 14:12 47.52429 -70.06544 27138 ft 450 kts 223°
2026-04-22 14:12 47.49928 -70.09300 26524 ft 448 kts 223°
2026-04-22 14:12 47.47426 -70.12048 25933 ft 446 kts 223°
2026-04-22 14:12 47.44941 -70.14778 25354 ft 443 kts 224°
2026-04-22 14:13 47.42737 -70.17786 24794 ft 433 kts 233°
2026-04-22 14:13 47.40787 -70.21158 24268 ft 427 kts 238°
2026-04-22 14:13 47.38951 -70.24592 23729 ft 425 kts 238°
2026-04-22 14:13 47.37120 -70.28014 23116 ft 423 kts 238°
2026-04-22 14:14 47.35263 -70.31351 22480 ft 423 kts 237°
2026-04-22 14:14 47.33370 -70.34674 21892 ft 421 kts 237°
2026-04-22 14:14 47.31506 -70.37956 21325 ft 420 kts 237°
2026-04-22 14:14 47.29629 -70.41263 20764 ft 419 kts 236°
2026-04-22 14:15 47.27754 -70.44551 20215 ft 418 kts 236°
2026-04-22 14:15 47.25904 -70.47793 19684 ft 414 kts 236°
2026-04-22 14:15 47.24057 -70.51028 19163 ft 410 kts 236°
2026-04-22 14:15 47.22222 -70.54236 18651 ft 407 kts 236°
2026-04-22 14:16 47.20425 -70.57375 18105 ft 404 kts 236°
2026-04-22 14:16 47.18612 -70.60533 17543 ft 402 kts 235°
2026-04-22 14:16 47.16812 -70.63671 16991 ft 400 kts 235°
2026-04-22 14:16 47.15023 -70.66779 16466 ft 398 kts 235°
2026-04-22 14:17 47.13237 -70.69881 15935 ft 396 kts 235°
2026-04-22 14:17 47.11454 -70.72974 15392 ft 394 kts 234°
2026-04-22 14:17 47.09704 -70.76005 14916 ft 390 kts 234°
2026-04-22 14:17 47.07967 -70.79022 14418 ft 384 kts 234°
2026-04-22 14:18 47.06283 -70.81919 14285 ft 369 kts 234°
2026-04-22 14:18 47.04831 -70.84974 13788 ft 358 kts 244°
2026-04-22 14:18 47.03711 -70.88157 13284 ft 344 kts 249°
2026-04-22 14:18 47.02729 -70.91248 12810 ft 333 kts 249°
2026-04-22 14:19 47.01768 -70.94272 12359 ft 327 kts 249°
2026-04-22 14:19 47.00802 -70.97248 11920 ft 320 kts 248°
2026-04-22 14:19 46.99830 -71.00108 11503 ft 314 kts 247°
2026-04-22 14:19 46.98860 -71.02945 11100 ft 308 kts 246°
2026-04-22 14:20 46.96975 -71.08465 10324 ft 297 kts 246°
2026-04-22 14:20 46.96051 -71.11162 9952 ft 293 kts 246°
2026-04-22 14:20 46.95155 -71.13780 9559 ft 289 kts 246°
2026-04-22 14:21 46.93375 -71.18952 8781 ft 279 kts 245°
2026-04-22 14:21 46.92504 -71.21478 8418 ft 274 kts 245°
2026-04-22 14:22 46.90812 -71.26388 7704 ft 266 kts 245°
2026-04-22 14:22 46.89982 -71.28786 7381 ft 262 kts 244°
2026-04-22 14:22 46.88338 -71.33440 6784 ft 255 kts 244°
2026-04-22 14:23 46.87522 -71.35733 6490 ft 251 kts 244°
2026-04-22 14:23 46.86747 -71.37976 6178 ft 247 kts 245°
2026-04-22 14:23 46.85976 -71.40200 5872 ft 243 kts 244°
2026-04-22 14:23 46.85214 -71.42386 5595 ft 239 kts 245°
2026-04-22 14:24 46.84483 -71.44549 5303 ft 235 kts 245°
2026-04-22 14:24 46.83756 -71.46670 5013 ft 231 kts 242°
2026-04-22 14:24 46.82785 -71.48531 4676 ft 230 kts 226°
2026-04-22 14:24 46.81661 -71.50153 4358 ft 229 kts 224°
2026-04-22 14:25 46.80530 -71.51784 4047 ft 227 kts 223°
2026-04-22 14:25 46.79398 -71.53395 3735 ft 225 kts 222°
2026-04-22 14:25 46.78246 -71.54936 3465 ft 222 kts 218°
2026-04-22 14:25 46.76985 -71.56140 3169 ft 217 kts 198°
2026-04-22 14:26 46.75525 -71.56470 2871 ft 210 kts 172°
2026-04-22 14:26 46.74152 -71.55870 2590 ft 204 kts 149°
2026-04-22 14:26 46.73088 -71.54552 2338 ft 201 kts 122°
2026-04-22 14:26 46.72806 -71.52612 2092 ft 198 kts 85°
2026-04-22 14:27 46.72965 -71.50628 1913 ft 195 kts 83°
2026-04-22 14:27 46.73187 -71.48701 1703 ft 194 kts 79°
2026-04-22 14:27 46.73724 -71.46962 1429 ft 186 kts 47°
2026-04-22 14:27 46.74580 -71.45752 1321 ft 153 kts 46°
2026-04-22 14:28 46.75317 -71.44857 1135 ft 134 kts 44°
2026-04-22 14:28 46.76022 -71.43876 923 ft 143 kts 48°
2026-04-22 14:28 46.76717 -71.42818 723 ft 144 kts 48°
2026-04-22 14:28 46.77412 -71.41809 581 ft 140 kts 46°
2026-04-22 14:29 46.78104 -71.40840 337 ft 137 kts 48°
2026-04-22 14:29 46.78701 -71.39965 251 ft 98 kts 44°
2026-04-22 14:29 46.79085 -71.39409 251 ft 68 kts 44°
2026-04-22 14:29 46.79400 -71.38962 251 ft 49 kts 45°
2026-04-22 14:30 46.79491 -71.38726 251 ft 18 kts 97°
2026-04-22 14:30 46.79427 -71.38581 251 ft 13 kts 150°
2026-04-22 14:30 46.79337 -71.38557 251 ft 14 kts 188°
2026-04-22 14:30 46.79232 -71.38583 251 ft 16 kts 187°
2026-04-22 14:31 46.79122 -71.38611 251 ft 13 kts 193°
2026-04-22 14:31 46.79062 -71.38623 251 ft 7 kts 163°
2026-04-22 14:31 46.79048 -71.38568 251 ft 7 kts 70°
2026-04-22 14:31 46.79058 -71.38518 251 ft 3 kts 77°
2026-04-22 14:32 46.79059 -71.38512 251 ft 0 kts 77°